Regional Weather Roundup
Issued by NWS

Home | Current Version | Previous Version | Text Only | Print | Product List | Glossary On
Versions: 1 2 3 4 5 6 7 8 9 10 11 12 13 14 15 16 17 18 19 20 21 22 23 24 25 26 27 28 29 30 31 32 33 34 35 36 37 38 39 40 41 42 43
000
ASUS44 KBMX 280810
RWRAL

ALABAMA REGIONAL WEATHER ROUNDUP
NATIONAL WEATHER SERVICE BIRMINGHAM AL
200 AM CST SUN DEC 28 2014

NOTE: "FAIR" INDICATES FEW OR NO CLOUDS BELOW 12,000 FEET
WITH NO SIGNIFICANT WEATHER AND/OR OBSTRUCTIONS TO VISIBILITY.

THE REMARK "TC" DENOTES TEMPERATURE IN DEGREES CELSIUS.

ALZ001>011-014-016>018-020-280900-
NORTH ALABAMA

CITY           SKY/WX    TMP DP  RH WIND       PRES   REMARKS
MUSCLE SHOALS  LGT RAIN  53  51  93 N3        30.06S FOG
HUNTSVILLE     RAIN      56  56 100 CALM      30.05S FOG
DECATUR        RAIN      55  53  93 N6        30.06R FOG
HALEYVILLE     CLOUDY    54  54 100 CALM      30.05F FOG
GADSDEN        CLOUDY    52  48  87 NW5       30.08F
$$

ALZ012-013-022-023-030>036-040>044-280900-
WEST CENTRAL ALABAMA

CITY           SKY/WX    TMP DP  RH WIND       PRES   REMARKS
TUSCALOOSA     RAIN      58  57  97 SE5       30.04F
$$

ALZ015-024>027-033>036-040>044-280900-
CENTRAL ALABAMA

CITY           SKY/WX    TMP DP  RH WIND       PRES   REMARKS
BIRMINGHAM     LGT RAIN  57  56  96 VRB3      30.08F
MONTGOMERY     CLOUDY    59  52  77 CALM      30.07F
SHELBY CO ARPT LGT RAIN  54  54 100 E5        30.08F FOG
MAXWELL AFB    CLOUDY    55  54  94 N8        30.08S
GREENVILLE     CLOUDY    57  54  88 S3        30.07F
$$

ALZ019-021-028-029-037-038-045>048-280900-
EAST CENTRAL ALABAMA

CITY           SKY/WX    TMP DP  RH WIND       PRES   REMARKS
ANNISTON       RAIN      54  53  97 NE3       30.10F FOG
ALEXANDER CITY CLOUDY    55  52  88 CALM      30.11F
AUBURN         CLOUDY    54  48  82 S8        30.12S
$$

ALZ051>064-280900-
SOUTHWEST ALABAMA

CITY           SKY/WX    TMP DP  RH WIND       PRES   REMARKS
MOBILE         CLOUDY    61  61 100 SE7       30.07S FOG
BROOKLEY FIELD CLOUDY    66  65  96 SE6       30.08S
EVERGREEN      LGT RAIN  57  53  86 SE3       30.08F
$$

ALZ049-050-065>069-280900-
SOUTHEAST ALABAMA

CITY           SKY/WX    TMP DP  RH WIND       PRES   REMARKS
DOTHAN         NOT AVBL
OZARK          PTCLDY    58  52  81 E6        30.10F
TROY           CLOUDY    59  53  80 S6        30.09F
EUFAULA        CLOUDY    56  54  93 S5        30.10F
$$


USA.gov is the U.S. government's official web portal to all federal, state and local government web resources and services.